EW7567 Weather Reports


time (UTC)temp
F
wind
direction
speed
knots
gust
knots
rain 1hr
in
rain 24hr
in
rain mn
in
humidity
%
barometer
mb
20221203064916 20 61 3.5 9.6 0.00 0.00 0.00 69 1020.7
20221203064415 16 51 1.7 3.5 0.00 0.00 0.00 64 1020.8
20221203063917 16 51 0.9 2.6 0.00 0.00 0.00 61 1020.8
20221203063417 17 51 0.9 1.7 0.00 0.00 0.00 60 1021.0
20221203062911 16 51 0.0 1.7 0.00 0.00 0.00 60 1020.8
20221203061913 17 51 0.9 1.7 0.00 0.00 0.00 59 1020.7
20221203061411 17 51 0.9 3.5 0.00 0.00 0.00 59 1020.7
20221203060913 17 51 0.9 3.5 0.00 0.00 0.00 58 1020.6
20221203060411 17 51 0.0 1.7 0.00 0.00 0.00 56 1020.4
20221203055413 18 51 0.9 2.6 0.00 0.00 0.00 55 1020.2
20221203054913 18 51 0.0 1.7 0.00 0.00 0.00 54 1020.2
20221203054409 18 51 0.9 2.6 0.00 0.00 0.00 54 1020.1
20221203053908 18 51 1.7 2.6 0.00 0.00 0.00 55 1020.1
20221203053408 19 51 0.9 2.6 0.00 0.00 0.00 54 1020.4
20221203052907 19 51 0.9 2.6 0.00 0.00 0.00 53 1020.1
20221203052408 19 51 0.9 5.2 0.00 0.00 0.00 53 1020.0
20221203051409 19 51 1.7 5.2 0.00 0.00 0.00 52 1019.9
20221203050908 20 51 1.7 5.2 0.00 0.00 0.00 52 1020.0
20221203050405 20 51 1.7 5.2 0.00 0.00 0.00 52 1020.1
20221203045402 20 51 1.7 5.2 0.00 0.00 0.00 52 1020.0
20221203044902 20 51 1.7 4.3 0.00 0.00 0.00 52 1019.9
20221203044403 20 51 0.9 3.5 0.00 0.00 0.00 52 1019.8
20221203043901 20 51 0.9 2.6 0.00 0.00 0.00 51 1019.8
20221203043401 20 51 0.9 2.6 0.00 0.00 0.00 51 1019.8
20221203042901 21 51 1.7 4.3 0.00 0.00 0.00 51 1019.6
20221203042359 21 51 2.6 5.2 0.00 0.00 0.00 51 1019.6
20221203041900 21 51 2.6 7.8 0.00 0.00 0.00 51 1019.6
20221203041400 21 51 1.7 7.8 0.00 0.00 0.00 51 1019.8
20221203040901 22 51 1.7 4.3 0.00 0.00 0.00 52 1019.8
20221203040359 22 51 1.7 5.2 0.00 0.00 0.00 52 1019.6
20221203035902 22 51 1.7 5.2 0.00 0.00 0.00 52 1019.8
20221203035359 22 51 1.7 4.3 0.00 0.00 0.00 51 1019.6
20221203034859 22 51 2.6 5.2 0.00 0.00 0.00 52 1019.5
20221203034356 22 51 2.6 6.1 0.00 0.00 0.00 53 1019.4
20221203033857 22 51 1.7 6.1 0.00 0.00 0.00 53 1019.4
20221203033353 23 51 1.7 5.2 0.00 0.00 0.00 52 1019.3
20221203032854 23 51 1.7 5.2 0.00 0.00 0.00 52 1019.3
20221203032348 23 51 2.6 6.1 0.00 0.00 0.00 52 1019.3
20221203031842 23 51 2.6 6.1 0.00 0.00 0.00 52 1019.4
20221203030830 23 51 1.7 4.3 0.00 0.00 0.00 52 1019.1
20221203025817 24 51 2.6 7.8 0.00 0.00 0.00 51 1018.9
20221203025312 24 51 2.6 5.2 0.00 0.00 0.00 51 1019.1
20221203024300 24 51 1.7 4.3 0.00 0.00 0.00 52 1019.1
20221203023247 24 51 2.6 5.2 0.00 0.00 0.00 52 1019.0
20221203022741 24 51 2.6 5.2 0.00 0.00 0.00 52 1019.1
20221203022237 24 51 2.6 5.2 0.00 0.00 0.00 52 1019.0
20221203021737 24 51 1.7 3.5 0.00 0.00 0.00 52 1018.9
20221203021238 24 51 1.7 3.5 0.00 0.00 0.00 51 1018.8
20221203020737 25 51 1.7 4.3 0.00 0.00 0.00 50 1018.8
20221203020237 25 51 1.7 4.3 0.00 0.00 0.00 50 1018.7
20221203015737 25 51 1.7 3.5 0.00 0.00 0.00 50 1018.5
20221203015237 25 51 1.7 3.5 0.00 0.00 0.00 50 1018.5
20221203014737 25 51 1.7 3.5 0.00 0.00 0.00 49 1018.4
20221203014237 25 51 1.7 5.2 0.00 0.00 0.00 49 1018.4
20221203013738 26 51 1.7 5.2 0.00 0.00 0.00 48 1018.3
20221203013238 26 51 1.7 4.3 0.00 0.00 0.00 48 1018.2
20221203012237 26 51 1.7 5.2 0.00 0.00 0.00 48 1018.2
20221203010733 27 51 2.6 6.1 0.00 0.00 0.00 47 1017.6
20221203010233 28 51 2.6 5.2 0.00 0.00 0.00 47 1017.6
20221203005734 28 51 2.6 6.1 0.00 0.00 0.00 46 1017.3
20221203005228 28 51 2.6 6.1 0.00 0.00 0.00 47 1017.1
20221203004722 29 51 1.7 5.2 0.00 0.00 0.00 46 1017.1
20221203004217 30 51 1.7 6.1 0.00 0.00 0.00 45 1016.7
20221203003711 30 51 3.5 11.3 0.00 0.00 0.00 44 1016.5
20221203003203 31 51 2.6 11.3 0.00 0.00 0.00 44 1016.6
20221203002658 32 11 0.9 6.1 0.00 0.00 0.00 44 1016.1
20221203002152 33 9 0.9 3.5 0.00 0.00 0.00 44 1015.7
20221203001140 35 9 0.9 2.6 0.00 0.00 0.00 42 1015.3
20221203000634 35 9 0.9 1.7 0.00 0.00 0.00 42 1015.1
20221203000128 35 9 0.9 1.7 0.00 0.00 0.00 41 1015.0
20221202235621 36 9 0.9 2.6 0.00 0.00 0.00 41 1014.8
20221202234106 38 9 0.9 2.6 0.00 0.00 0.00 41 1014.3
20221202233106 39 9 0.9 2.6 0.00 0.00 0.00 39 1013.9
20221202232607 39 9 1.7 3.5 0.00 0.00 0.00 38 1013.8
20221202232105 40 9 1.7 3.5 0.00 0.00 0.00 37 1013.6
20221202231604 40 9 1.7 3.5 0.00 0.00 0.00 37 1013.4
20221202231103 41 9 1.7 4.3 0.00 0.00 0.00 36 1013.2
20221202230603 41 9 1.7 4.3 0.00 0.00 0.00 36 1012.7
20221202230102 42 9 0.9 4.3 0.00 0.00 0.00 36 1012.6
20221202225058 42 9 0.9 2.6 0.00 0.00 0.00 38 1012.5
20221202224057 43 9 1.7 4.3 0.00 0.00 0.00 39 1011.9
20221202223556 43 9 1.7 3.5 0.00 0.00 0.00 40 1011.7
20221202223056 43 9 1.7 3.5 0.00 0.00 0.00 39 1011.5
20221202222557 44 9 1.7 3.5 0.00 0.00 0.00 40 1011.5
20221202222055 44 9 1.7 3.5 0.00 0.00 0.00 39 1011.2
20221202221555 44 9 0.9 4.3 0.00 0.00 0.00 40 1011.1
20221202221056 44 9 0.9 4.3 0.00 0.00 0.00 39 1010.9
20221202220550 44 9 1.7 4.3 0.00 0.00 0.00 39 1010.6
20221202220044 44 9 2.6 6.1 0.00 0.00 0.00 40 1010.4
20221202215032 44 10 1.7 4.3 0.00 0.00 0.00 39 1010.0
20221202214526 44 10 1.7 4.3 0.00 0.00 0.00 40 1009.9
20221202214020 44 10 1.7 4.3 0.00 0.00 0.00 40 1009.9
20221202213514 44 10 2.6 6.1 0.00 0.00 0.00 41 1009.4
20221202213008 43 10 1.7 6.1 0.00 0.00 0.00 41 1009.3
20221202212501 42 10 1.7 7.0 0.00 0.00 0.00 44 1009.2
20221202211450 42 9 1.7 6.1 0.00 0.00 0.00 43 1009.3
20221202210944 42 9 1.7 6.1 0.00 0.00 0.00 43 1008.8
20221202210438 42 9 2.6 7.0 0.00 0.00 0.00 43 1008.6
20221202205932 42 11 2.6 7.0 0.00 0.00 0.00 43 1008.2
20221202205426 43 24 1.7 8.7 0.00 0.00 0.00 42 1008.3
20221202204926 43 24 2.6 8.7 0.00 0.00 0.00 42 1008.2
20221202204426 44 15 2.6 7.0 0.00 0.00 0.00 41 1008.0
20221202203925 45 351 2.6 7.8 0.00 0.00 0.00 39 1007.8
20221202202925 45 289 3.5 13.0 0.00 0.00 0.00 40 1007.5
20221202202429 45 337 3.5 13.0 0.00 0.00 0.00 41 1007.5
20221202201924 45 44 3.5 11.3 0.00 0.00 0.00 43 1007.4
20221202201426 46 47 3.5 10.4 0.00 0.00 0.00 42 1007.2
20221202200926 48 19 3.5 8.7 0.00 0.00 0.00 39 1007.4
20221202200426 49 307 4.3 12.2 0.00 0.00 0.00 38 1007.2
20221202195923 52 303 5.2 13.0 0.00 0.00 0.00 34 1006.6
20221202195424 55 290 4.3 13.0 0.00 0.00 0.00 32 1007.4
20221202194924 55 250 3.5 7.8 0.00 0.00 0.00 33 1006.0
20221202194422 54 143 2.6 7.8 0.00 0.00 0.00 34 1005.8
20221202193917 53 200 3.5 9.6 0.00 0.00 0.00 34 1005.8
20221202193416 53 205 3.5 9.6 0.00 0.00 0.00 35 1005.8
20221202192917 53 180 2.6 4.3 0.00 0.00 0.00 35 1005.7
20221202192416 53 185 2.6 5.2 0.00 0.00 0.00 35 1005.5
20221202191917 53 185 2.6 6.1 0.00 0.00 0.00 35 1005.4
20221202191416 52 211 2.6 6.1 0.00 0.00 0.00 36 1005.3
20221202190917 52 249 2.6 6.1 0.00 0.00 0.00 36 1005.2
20221202190418 51 290 2.6 7.0 0.00 0.00 0.00 37 1004.9
20221202185917 51 291 3.5 7.0 0.00 0.00 0.00 38 1005.1
20221202185412 50 291 3.5 7.0 0.00 0.00 0.00 39 1005.1
20221202184913 50 292 3.5 7.0 0.00 0.00 0.00 39 1004.9
20221202184413 50 288 5.2 13.9 0.00 0.00 0.00 41 1004.8
20221202183913 51 296 5.2 13.9 0.00 0.00 0.00 38 1004.8
20221202183412 53 241 4.3 11.3 0.00 0.00 0.00 34 1004.7
20221202182414 53 190 6.1 13.9 0.00 0.00 0.00 35 1004.7
20221202181914 53 167 6.1 12.2 0.00 0.00 0.00 36 1004.6
20221202180908 53 236 5.2 18.2 0.00 0.00 0.00 36 1004.6
20221202180408 52 187 5.2 10.4 0.00 0.00 0.00 37 1004.4
20221202175409 52 182 5.2 10.4 0.00 0.00 0.00 37 1004.3
20221202174908 52 194 6.1 11.3 0.00 0.00 0.00 37 1004.3
20221202174410 51 141 5.2 13.9 0.00 0.00 0.00 38 1004.2
20221202173409 51 186 7.0 15.6 0.00 0.00 0.00 39 1004.1
20221202172910 50 175 7.0 14.8 0.00 0.00 0.00 39 1004.0
20221202172409 50 194 7.0 13.0 0.00 0.00 0.00 39 1003.8
20221202171910 51 175 7.0 13.0 0.00 0.00 0.00 39 1003.8
20221202171410 50 184 7.0 13.9 0.00 0.00 0.00 39 1003.7
20221202170910 50 200 7.0 15.6 0.00 0.00 0.00 39 1003.8
20221202170409 50 184 8.7 18.2 0.00 0.00 0.00 39 1003.6
20221202165406 50 188 7.8 20.0 0.00 0.00 0.00 39 1003.6
20221202164906 49 195 7.8 15.6 0.00 0.00 0.00 39 1003.6
20221202164407 49 215 7.8 16.5 0.00 0.00 0.00 39 1003.5
20221202163907 49 157 7.0 16.5 0.00 0.00 0.00 38 1003.3
20221202163401 49 182 7.0 13.0 0.00 0.00 0.00 38 1003.5
20221202162854 49 209 7.0 17.4 0.00 0.00 0.00 38 1003.7
20221202162356 49 256 6.1 17.4 0.00 0.00 0.00 38 1003.3
20221202161358 49 178 7.0 13.0 0.00 0.00 0.00 38 1003.3
20221202160855 49 182 6.1 13.0 0.00 0.00 0.00 38 1003.2
20221202155856 48 222 6.1 15.6 0.00 0.00 0.00 39 1003.1
20221202155354 48 197 7.8 15.6 0.00 0.00 0.00 39 1003.0
20221202154856 47 179 7.8 15.6 0.00 0.00 0.00 39 1003.1
20221202154354 47 167 8.7 18.2 0.00 0.00 0.00 40 1002.9
20221202153354 47 167 7.0 18.2 0.00 0.00 0.00 40 1002.5
20221202152854 46 200 8.7 15.6 0.00 0.00 0.00 41 1002.4
20221202151852 46 193 8.7 16.5 0.00 0.00 0.00 40 1002.3
20221202150855 46 198 7.0 17.4 0.00 0.00 0.00 40 1002.4
20221202150350 45 182 7.0 16.5 0.00 0.00 0.00 40 1002.3
20221202145844 45 191 7.8 16.5 0.00 0.00 0.00 40 1002.3
20221202145344 45 282 7.8 16.5 0.00 0.00 0.00 40 1002.1
20221202144844 45 190 8.7 17.4 0.00 0.00 0.00 39 1001.8
20221202144344 45 197 8.7 17.4 0.00 0.00 0.00 39 1001.6
20221202143844 45 195 8.7 20.0 0.00 0.00 0.00 39 1001.4
20221202143345 45 185 9.6 20.0 0.00 0.00 0.00 39 1001.2
20221202142844 45 226 10.4 22.6 0.00 0.00 0.00 39 1000.9
20221202142344 45 163 10.4 22.6 0.00 0.00 0.00 38 1000.8
20221202141844 45 240 9.6 21.7 0.00 0.00 0.00 38 1000.8
20221202141344 45 186 9.6 21.7 0.00 0.00 0.00 37 1000.6
20221202140844 46 194 9.6 21.7 0.00 0.00 0.00 36 1000.3
20221202135844 46 188 10.4 20.9 0.00 0.00 0.00 36 1000.1
20221202135345 46 184 9.6 20.9 0.00 0.00 0.00 36 999.8
20221202134844 46 178 8.7 20.0 0.00 0.00 0.00 35 999.9
20221202134344 46 208 9.6 21.7 0.00 0.00 0.00 35 999.8
20221202133839 46 196 9.6 21.7 0.00 0.00 0.00 34 999.5
20221202133334 46 175 10.4 21.7 0.00 0.00 0.00 34 999.2
20221202132826 46 184 12.2 26.9 0.00 0.00 0.00 34 999.2
20221202132321 46 215 11.3 26.9 0.00 0.00 0.00 34 999.2
20221202131815 46 190 11.3 23.5 0.00 0.00 0.00 34 999.2
20221202131309 46 197 10.4 23.5 0.00 0.00 0.00 34 999.3
20221202130803 46 189 9.6 21.7 0.00 0.00 0.00 33 999.3
20221202130257 46 173 10.4 25.2 0.00 0.00 0.00 34 999.2
20221202125751 46 189 11.3 25.2 0.00 0.00 0.00 33 999.7
20221202124739 47 229 10.4 20.9 0.00 0.00 0.00 33 999.5
20221202124233 46 192 9.6 21.7 0.00 0.00 0.00 34 999.3
20221202123727 46 194 8.7 21.7 0.00 0.00 0.00 34 999.2
20221202123221 46 191 8.7 18.2 0.00 0.00 0.00 34 999.3
20221202122715 46 175 8.7 18.2 0.00 0.00 0.00 35 999.5
20221202121703 46 185 8.7 22.6 0.00 0.00 0.00 35 999.5
20221202121157 47 171 9.6 22.6 0.00 0.00 0.00 35 999.6
20221202120652 46 190 8.7 22.6 0.00 0.00 0.00 35 999.5
20221202120145 46 216 8.7 18.2 0.00 0.00 0.00 35 999.7
20221202115638 47 248 7.8 16.5 0.00 0.00 0.00 35 999.6
20221202115133 47 190 7.0 20.9 0.00 0.00 0.00 35 999.2
20221202114628 47 217 8.7 20.9 0.00 0.00 0.00 35 999.2
20221202114120 47 211 10.4 29.5 0.00 0.00 0.00 35 999.1
20221202113615 47 167 11.3 29.5 0.00 0.00 0.00 35 999.1
20221202112056 47 192 10.4 21.7 0.00 0.00 0.00 35 999.1
20221202111551 47 238 10.4 23.5 0.00 0.00 0.00 35 998.9
20221202111045 47 254 10.4 24.3 0.00 0.00 0.00 35 999.1
20221202110033 48 178 11.3 24.3 0.00 0.00 0.00 34 998.7
20221202105021 48 246 11.3 32.2 0.00 0.00 0.00 34 999.1
20221202104515 48 236 11.3 25.2 0.00 0.00 0.00 33 999.2
20221202104009 48 217 10.4 25.2 0.00 0.00 0.00 33 999.3
20221202103503 48 198 10.4 27.8 0.00 0.00 0.00 33 999.2
20221202102957 48 187 9.6 27.8 0.00 0.00 0.00 33 999.5
20221202102451 48 242 9.6 21.7 0.00 0.00 0.00 33 999.3
20221202101945 48 236 10.4 25.2 0.00 0.00 0.00 32 999.2
20221202101439 48 239 10.4 25.2 0.00 0.00 0.00 32 999.3
20221202100934 48 176 10.4 22.6 0.00 0.00 0.00 31 999.5
20221202100428 48 194 9.6 22.6 0.00 0.00 0.00 31 999.6
20221202095427 48 223 10.4 22.6 0.00 0.00 0.00 31 999.3
20221202094928 48 204 10.4 26.1 0.00 0.00 0.00 31 999.7
20221202094428 48 240 9.6 26.1 0.00 0.00 0.00 31 999.7
20221202093927 48 180 8.7 20.9 0.00 0.00 0.00 31 1000.1
20221202092928 48 225 8.7 20.0 0.00 0.00 0.00 32 1000.3
20221202092429 48 247 8.7 20.9 0.00 0.00 0.00 32 1000.2
20221202091427 48 252 8.7 21.7 0.00 0.00 0.00 32 1000.4
20221202090927 48 207 9.6 24.3 0.00 0.00 0.00 32 1000.2
20221202090426 48 223 9.6 24.3 0.00 0.00 0.00 32 999.9
20221202085926 48 223 9.6 26.1 0.00 0.00 0.00 32 999.8
20221202085426 48 194 9.6 26.1 0.00 0.00 0.00 32 999.8
20221202084926 48 207 10.4 22.6 0.00 0.00 0.00 32 999.6
20221202084427 48 225 11.3 29.5 0.00 0.00 0.00 32 999.9
20221202083921 48 240 9.6 29.5 0.00 0.00 0.00 32 1000.2
20221202083415 48 198 9.6 25.2 0.00 0.00 0.00 32 1000.4
20221202082909 48 201 10.4 25.2 0.00 0.00 0.00 32 1000.8
20221202082409 48 232 8.7 25.2 0.00 0.00 0.00 32 1000.8
20221202081857 48 244 7.8 25.2 0.00 0.00 0.00 31 1001.2
20221202081350 48 219 8.7 20.0 0.00 0.00 0.00 31 1001.4
20221202080851 48 220 8.7 20.0 0.00 0.00 0.00 31 1001.5
20221202080348 48 254 8.7 17.4 0.00 0.00 0.00 31 1002.0
20221202075349 49 263 9.6 20.0 0.00 0.00 0.00 30 1002.4
20221202074849 49 277 7.8 19.1 0.00 0.00 0.00 30 1002.3
20221202073347 49 300 8.7 20.9 0.00 0.00 0.00 29 1003.0
20221202072848 49 277 9.6 20.0 0.00 0.00 0.00 29 1003.2
20221202072348 49 290 8.7 18.2 0.00 0.00 0.00 29 1003.2
20221202071849 49 273 7.8 21.7 0.00 0.00 0.00 29 1003.5
20221202071344 49 282 7.8 21.7 0.00 0.00 0.00 29 1003.8
20221202070844 49 263 8.7 19.1 0.00 0.00 0.00 29 1003.6
20221202070343 49 286 9.6 20.0 0.00 0.00 0.00 29 1003.8
20221202065344 49 275 7.0 16.5 0.00 0.00 0.00 29 1004.0